Regional Weather Roundup
Issued by NWS

Home | Current Version | Previous Version | Text Only | Print | Product List | Glossary On
Versions: 1 2 3 4 5 6 7 8 9 10 11 12 13 14 15 16 17 18 19 20 21 22 23 24 25 26 27 28 29 30 31 32 33 34 35 36 37 38 39 40 41 42 43 44 45 46 47 48 49 50
000
ASUS44 KFWD 282015
RWRTX
NORTH TEXAS HOURLY WEATHER ROUNDUP
NATIONAL WEATHER SERVICE FORT WORTH TX
200 PM CST SUN DEC 28 2014

NOTE: "FAIR" INDICATES FEW OR NO CLOUDS BELOW 12,000 FEET WITH NO
SIGNIFICANT WEATHER AND/OR OBSTRUCTIONS TO VISIBILITY.

TXZ118-119-282100-
DALLAS/FORT WORTH METROPLEX

CITY           SKY/WX    TMP DP  RH WIND       PRES   REMARKS
DFW AIRPORT    MOSUNNY   46  23  40 NW7       30.17F
DALLAS LOVE    MOSUNNY   46  23  40 N7        30.18F
FTW MEACHAM    SUNNY     48  23  37 VRB6      30.18F
DAL-EXECUTIVE  MOSUNNY   45  22  40 NW5       30.17F
FTW-ALLIANCE   MOSUNNY   46  23  40 VRB5      30.17F
FTW-SPINKS     SUNNY     46  21  36 NW5       30.19F
ARLINGTON      MOSUNNY   47  19  33 N7        30.18F
GRAND PRAIRIE  SUNNY     46  23  39 NW5       30.19F
ADDISON        MOSUNNY   45  19  36 N8        30.17F
MESQUITE       SUNNY     43  25  49 NW7       30.19F WCI  39
LANCASTER      PTSUNNY   41  24  52 NW6       30.20F WCI  37
$$

TXZ091>094-102>105-117-120-121-131>134-282100-
NORTH CENTRAL TEXAS

CITY           SKY/WX    TMP DP  RH WIND       PRES   REMARKS
SHRMAN/DENISON SUNNY     45  26  48 CALM      30.19F
GAINESVILLE    SUNNY     44  22  41 CALM      30.19F
BOWIE          SUNNY     46  20  36 CALM      30.16F
BRIDGEPORT     SUNNY     50  26  39 CALM      30.19F
DECATUR        SUNNY     45  20  38 SW5       30.16F
DENTON         SUNNY     46  21  37 NE8       30.17F
MCKINNEY       SUNNY     44  25  47 NW10      30.17F WCI  39
GREENVILLE       N/A     43  27  52 N6        30.18F WCI  39
ROCKWALL       MOSUNNY   43  26  51 N5        30.17F
TERRELL        PTSUNNY   43  24  47 NW8       30.18F WCI  38
WAXAHACHIE     CLOUDY    41  27  56 NW8       30.20F WCI  36
CLEBURNE       PTSUNNY   45  23  42 CALM      30.19F
GRANBURY       MOSUNNY   47  23  38 NW5       30.19F
$$

TXZ083>090-098>101-113>116-127>130-139>142-154-155-282100-
WESTERN NORTH TEXAS

CITY           SKY/WX    TMP DP  RH WIND       PRES   REMARKS
WICHITA FALLS  SUNNY     45  24  43 S8        30.15F
WF-KICKAPOO    SUNNY     45  22  41 S6        30.17F
VERNON         SUNNY     47  20  34 S16       30.11F
ABILENE        SUNNY     49  24  37 S10       30.13F
ABILENE-DYESS  SUNNY     50  24  35 S10       30.12F
BRECKENRIDGE   SUNNY     48  22  36 SW5       30.15F HAZE
GRAHAM         SUNNY     47  27  46 S6        30.15F
MINERAL WELLS  SUNNY     46  20  35 CALM      30.16F
STEPHENVILLE   SUNNY     47  20  34 CALM      30.19F
COMANCHE       SUNNY     48  24  39 W3        30.17F
BROWNWOOD      SUNNY     48  21  34 SW6       30.16F
COLEMAN        SUNNY     50  26  39 SW9       30.15F
BRADY          SUNNY     50  21  32 SW3       30.15F
$$

TXZ143>147-156>162-174-175-282100-
CENTRAL TEXAS

CITY           SKY/WX    TMP DP  RH WIND       PRES   REMARKS
WACO           CLOUDY    42  26  53 NW7       30.20F WCI  38
WACO-TSTC      CLOUDY    43  28  56 N6        30.20F WCI  39
WACO-MCGREGOR  CLOUDY    43  25  49 N8        30.21F WCI  38
HILLSBORO      CLOUDY    41  26  55 NW9       30.19F WCI  36
CORSICANA      CLOUDY    41  25  53 N8        30.20F WCI  36
MEXIA          CLOUDY    39  28  64 N7        30.18F WCI  34
HEARNE         CLOUDY    38  35  87 NW10      30.21F WCI  31
CAMERON        CLOUDY    41  31  69 N9        30.21F WCI  35
TEMPLE         CLOUDY    41  25  52 NW9       30.19F WCI  35
KILLEEN        CLOUDY    41  25  52 NW8       30.19F WCI  36
KILLEEN-SKYLRK CLOUDY    43  23  45 N3        30.17F
FORT HOOD      CLOUDY    41  24  50 NW8       30.18F WCI  36
GATESVILLE     PTSUNNY   43  27  52 NW7       30.22S WCI  39
HAMILTON       CLOUDY    45  23  41 NW5       30.19F
LAMPASAS       CLOUDY    42  26  53 NW7       30.18  WCI  37
$$

TXZ095>097-106>112-122>126-135>138-148>153-164>167-282100-
EAST TEXAS

CITY           SKY/WX    TMP DP  RH WIND       PRES   REMARKS
PARIS          CLOUDY    39  27  60 NW6       30.19S WCI  35
SULPHUR SPRNGS CLOUDY    40  29  63 N8        30.19F WCI  35
MOUNT PLEASANT CLOUDY    40  31  68 W6        30.18F WCI  36
GILMER         DRIZZLE   38  33  84 CALM      30.17F
MINEOLA        CLOUDY    39  32  75 NW6       30.18F WCI  35
TYLER          CLOUDY    39  34  82 N5        30.16F WCI  36
LONGVIEW       LGT RAIN  38  35  89 NW6       30.17S WCI  33
MARSHALL       CLOUDY    41  38  91 N3        30.17F
ATHENS         CLOUDY    37  32  81 CALM      30.17F
PALESTINE      DRIZZLE   38  37  97 NW3       30.20S
JACKSONVILLE   RAIN      37  37  99 N6        30.17F WCI  32
HENDERSON      LGT RAIN  37  36  98 NW6       30.18S WCI  32
NACOGDOCHES      N/A    N/A N/A N/A MISG        N/A
LUFKIN         LGT RAIN  42  37  82 NW5       30.15F WCI  39
$$

SUPPLEMENTAL OBSERVATIONS (CENTRAL)

CITY           SKY/WX    TMP DP  RH WIND       PRES   REMARKS
CADDO GRASSLND   N/A     46  28  49 NW6         N/A
PAT MAYSE LAKE   N/A     39  28  65 NW6         N/A  WCI  35
GREENVILLE       N/A     41  27  56 N8          N/A  WCI  36
CEDAR HILL       N/A     48  23  37 N5          N/A
PALESTINE        N/A     37  32  81 N7          N/A  WCI  32
LAKE LIMESTONE   N/A     39  34  81 N7          N/A  WCI  34
MCGREGOR         N/A     41  25  52 N6          N/A  WCI  37
TEMPLE           N/A     41  27  56 NW1         N/A
$$

SUPPLEMENTAL OBSERVATIONS (WEST)

CITY           SKY/WX    TMP DP  RH WIND       PRES   REMARKS
MILLERS CREEK    N/A     46  37  71 S13         N/A
POSSUM KINGDOM   N/A     48  21  34 S3          N/A
LBJ GRASSLAND    N/A     48  21  34 W1          N/A
GRANBURY         N/A     48  23  37 NW5         N/A
HAMBY            N/A     50  27  40 S9          N/A
IVIE RESERVOIR   N/A     52  23  32 W7          N/A
COLORADO BEND    N/A     43  27  52 NW5         N/A
$$

SUPPLEMENTAL OBSERVATIONS (EAST)

CITY           SKY/WX    TMP DP  RH WIND       PRES   REMARKS
CLARKSVILLE      N/A     41  30  65 NW5         N/A  WCI  38
TEXARKANA        N/A     43  36  75 NE2         N/A
LINDEN           N/A     39  34  81 N2          N/A
CADDO LAKE       N/A     39  37  93 NW3         N/A
GILMER           N/A     39  32  75 NW1         N/A
HENDERSON        N/A     37  32  81 NW9         N/A  WCI  31
N SABINE NF      N/A     43  39  87 MISG        N/A
S SABINE NF      N/A     45  41  87 W2          N/A
$$

SUPPLEMENTAL OBSERVATIONS ARE A COLLECTION OF AUTOMATED INSTRUMENTS
THAT ARE MAINTAINED BY A VARIETY OF FEDERAL AND STATE AGENCIES.
CERTAIN ELEMENTS...SUCH AS HUMIDITY VALUES AND SUSTAINED WIND
SPEEDS...MAY BE APPROXIMATED.



USA.gov is the U.S. government's official web portal to all federal, state and local government web resources and services.